| time (UTC) | temp F | wind direction | speed knots | gust knots | rain 1hr in | rain 24hr in | rain mn in | humidity % | barometer mb |
| 20260831043152 | 49 | 103 | 0.9 | 8.7 | 0.09 | 0.13 | 0.13 | 89 | 1008.5 |
| 20260831041617 | 49 | 125 | 1.7 | 7.0 | 0.11 | 0.12 | 0.12 | 90 | 1008.6 |
| 20260831040050 | 50 | 119 | 0.9 | 6.1 | 0.11 | 0.11 | 0.11 | 89 | 1008.7 |
| 20260831034549 | 51 | 207 | 0.0 | 0.0 | 0.07 | 0.07 | 0.07 | 87 | 1009.6 |
| 20260831033108 | 52 | 207 | 0.0 | 2.6 | 0.04 | 0.04 | 0.04 | 82 | 1009.7 |
| 20260831031602 | 55 | 284 | 0.0 | 13.9 | 0.01 | 0.01 | 0.01 | 75 | 1009.4 |
| 20260831030127 | 55 | 60 | 0.0 | 0.0 | 0.00 | 0.00 | 0.00 | 66 | 1008.0 |
| 20260831024600 | 55 | 45 | 0.0 | 7.0 | 0.00 | 0.00 | 0.00 | 66 | 1007.2 |
| 20260831023059 | 55 | 37 | 0.0 | 3.5 | 0.00 | 0.00 | 0.00 | 68 | 1007.0 |
| 20260831021552 | 55 | 29 | 0.0 | 0.0 | 0.00 | 0.00 | 0.00 | 70 | 1007.1 |
| 20260831020100 | 56 | 321 | 0.0 | 0.0 | 0.00 | 0.00 | 0.00 | 70 | 1006.9 |
| 20260831014507 | 57 | 327 | 2.6 | 7.8 | 0.00 | 0.00 | 0.00 | 67 | 1006.8 |
| 20260831013037 | 58 | 101 | 0.0 | 0.0 | 0.00 | 0.00 | 0.00 | 67 | 1006.5 |
| 20260831011506 | 58 | 101 | 0.0 | 0.0 | 0.00 | 0.00 | 0.00 | 63 | 1005.9 |
| 20260831010131 | 58 | 101 | 0.0 | 0.0 | 0.00 | 0.00 | 0.00 | 64 | 1005.7 |
| 20260831004503 | 59 | 101 | 0.0 | 0.0 | 0.00 | 0.00 | 0.00 | 61 | 1005.7 |
| 20260831003111 | 60 | 340 | 0.0 | 0.0 | 0.00 | 0.00 | 0.00 | 58 | 1005.9 |
| 20260831001605 | 60 | 347 | 0.0 | 0.0 | 0.00 | 0.00 | 0.00 | 59 | 1006.0 |
| 20260831000002 | 60 | 317 | 0.0 | 0.0 | 0.00 | 0.00 | 0.00 | 60 | 1005.9 |
| 20260830234631 | 58 | 126 | 0.0 | 0.0 | 0.00 | 0.00 | 0.00 | 64 | 1005.9 |
| 20260830233152 | 57 | 126 | 0.0 | 0.0 | 0.00 | 0.00 | 0.00 | 65 | 1005.7 |
| 20260830231502 | 57 | 121 | 0.0 | 0.0 | 0.00 | 0.00 | 0.00 | 68 | 1005.9 |
| 20260830230122 | 59 | 321 | 0.0 | 0.0 | 0.00 | 0.00 | 0.00 | 65 | 1006.9 |
| 20260830224551 | 60 | 308 | 0.0 | 0.0 | 0.00 | 0.03 | 0.00 | 57 | 1006.6 |
| 20260830223057 | 62 | 296 | 0.0 | 4.3 | 0.00 | 0.03 | 0.00 | 50 | 1006.0 |
| 20260830221557 | 63 | 150 | 0.0 | 0.0 | 0.00 | 0.03 | 0.00 | 48 | 1005.1 |
| 20260830220124 | 62 | 138 | 0.0 | 0.0 | 0.00 | 0.03 | 0.00 | 50 | 1004.8 |
| 20260830214553 | 60 | 137 | 0.0 | 8.7 | 0.00 | 0.03 | 0.00 | 53 | 1005.0 |
| 20260830213107 | 60 | 182 | 0.0 | 7.8 | 0.00 | 0.03 | 0.00 | 51 | 1005.2 |
| 20260830211554 | 59 | 194 | 1.7 | 9.6 | 0.00 | 0.03 | 0.00 | 54 | 1005.0 |
| 20260830204540 | 64 | 167 | 0.0 | 0.0 | 0.00 | 0.03 | 0.00 | 50 | 1004.5 |
| 20260830203046 | 66 | 184 | 0.0 | 0.0 | 0.00 | 0.03 | 0.00 | 48 | 1004.3 |
| 20260830201549 | 66 | 165 | 0.0 | 6.1 | 0.00 | 0.03 | 0.00 | 47 | 1004.2 |
| 20260830200050 | 66 | 142 | 0.0 | 7.0 | 0.00 | 0.03 | 0.00 | 48 | 1004.2 |
| 20260830194549 | 66 | 182 | 0.0 | 0.0 | 0.00 | 0.03 | 0.00 | 49 | 1004.3 |
| 20260830193052 | 65 | 185 | 0.0 | 0.0 | 0.00 | 0.03 | 0.00 | 49 | 1004.3 |
| 20260830191546 | 65 | 115 | 0.0 | 0.0 | 0.00 | 0.03 | 0.00 | 51 | 1004.6 |
| 20260830190048 | 65 | 261 | 0.0 | 0.0 | 0.00 | 0.03 | 0.00 | 48 | 1004.7 |
| 20260830184541 | 66 | 147 | 0.0 | 3.5 | 0.00 | 0.03 | 0.00 | 48 | 1004.6 |
| 20260830183147 | 66 | 150 | 0.0 | 0.0 | 0.00 | 0.03 | 0.00 | 47 | 1004.6 |
| 20260830181558 | 66 | 176 | 0.0 | 0.0 | 0.00 | 0.03 | 0.00 | 49 | 1004.7 |
| 20260830180124 | 65 | 155 | 0.0 | 0.0 | 0.00 | 0.03 | 0.00 | 51 | 1005.0 |
| 20260830174618 | 64 | 173 | 0.0 | 0.9 | 0.00 | 0.03 | 0.00 | 49 | 1005.2 |
| 20260830173152 | 64 | 167 | 0.0 | 0.0 | 0.00 | 0.03 | 0.00 | 51 | 1005.2 |
| 20260830171524 | 62 | 229 | 0.0 | 0.0 | 0.00 | 0.03 | 0.00 | 58 | 1005.4 |
| 20260830170020 | 62 | 288 | 0.0 | 0.0 | 0.00 | 0.03 | 0.00 | 54 | 1005.4 |
| 20260830164510 | 62 | 287 | 0.0 | 0.0 | 0.00 | 0.03 | 0.00 | 57 | 1005.4 |
| 20260830163032 | 61 | 257 | 0.0 | 0.0 | 0.00 | 0.03 | 0.00 | 55 | 1005.6 |
| 20260830161524 | 60 | 173 | 0.0 | 0.0 | 0.00 | 0.03 | 0.00 | 59 | 1005.6 |
| 20260830160153 | 59 | 173 | 0.0 | 0.0 | 0.00 | 0.03 | 0.00 | 58 | 1005.5 |
| 20260830154514 | 58 | 173 | 0.0 | 0.0 | 0.00 | 0.03 | 0.00 | 60 | 1005.4 |
| 20260830153040 | 58 | 173 | 0.0 | 0.0 | 0.00 | 0.03 | 0.00 | 64 | 1005.1 |
| 20260830151539 | 58 | 173 | 0.0 | 0.0 | 0.00 | 0.03 | 0.00 | 63 | 1004.9 |
| 20260830150114 | 57 | 173 | 0.0 | 0.0 | 0.00 | 0.03 | 0.00 | 63 | 1005.0 |
| 20260830144557 | 56 | 149 | 0.0 | 0.0 | 0.00 | 0.03 | 0.00 | 66 | 1005.1 |
| 20260830143112 | 56 | 150 | 0.0 | 0.9 | 0.00 | 0.03 | 0.00 | 68 | 1005.0 |
| 20260830141507 | 54 | 150 | 0.0 | 0.0 | 0.00 | 0.03 | 0.00 | 71 | 1005.4 |
| 20260830140029 | 53 | 174 | 0.0 | 0.0 | 0.00 | 0.03 | 0.00 | 72 | 1005.3 |
| 20260830134542 | 53 | 174 | 0.0 | 0.0 | 0.00 | 0.03 | 0.00 | 73 | 1005.4 |
| 20260830133048 | 53 | 174 | 0.0 | 0.0 | 0.00 | 0.03 | 0.00 | 71 | 1004.9 |
| 20260830131553 | 53 | 174 | 0.0 | 0.0 | 0.00 | 0.03 | 0.00 | 70 | 1004.9 |
| 20260830130104 | 52 | 174 | 0.0 | 0.0 | 0.00 | 0.03 | 0.00 | 71 | 1004.8 |
| 20260830124554 | 53 | 174 | 0.0 | 0.0 | 0.00 | 0.03 | 0.00 | 71 | 1004.6 |
| 20260830123054 | 52 | 174 | 0.0 | 0.0 | 0.00 | 0.03 | 0.00 | 70 | 1004.4 |
| 20260830121553 | 52 | 174 | 0.0 | 0.0 | 0.00 | 0.03 | 0.00 | 73 | 1004.0 |
| 20260830120029 | 52 | 174 | 0.0 | 0.0 | 0.00 | 0.03 | 0.00 | 72 | 1003.8 |
| 20260830114605 | 54 | 174 | 0.0 | 0.0 | 0.00 | 0.03 | 0.00 | 67 | 1003.8 |
| 20260830113057 | 54 | 174 | 0.0 | 0.0 | 0.00 | 0.03 | 0.00 | 66 | 1003.9 |
| 20260830111553 | 55 | 174 | 0.0 | 0.0 | 0.00 | 0.03 | 0.00 | 66 | 1003.9 |
| 20260830110040 | 55 | 174 | 0.0 | 0.0 | 0.00 | 0.03 | 0.00 | 66 | 1003.7 |
| 20260830104511 | 55 | 174 | 0.0 | 0.0 | 0.00 | 0.03 | 0.00 | 66 | 1003.4 |
| 20260830103036 | 55 | 174 | 0.0 | 0.0 | 0.00 | 0.03 | 0.00 | 66 | 1003.5 |
| 20260830101547 | 56 | 174 | 0.0 | 0.0 | 0.00 | 0.03 | 0.00 | 65 | 1003.5 |
| 20260830100037 | 56 | 174 | 0.0 | 0.0 | 0.00 | 0.03 | 0.00 | 64 | 1003.4 |
| 20260830094541 | 57 | 174 | 0.0 | 0.0 | 0.00 | 0.03 | 0.00 | 61 | 1003.5 |
| 20260830093055 | 57 | 174 | 0.0 | 0.0 | 0.00 | 0.03 | 0.00 | 61 | 1003.6 |
| 20260830091555 | 58 | 125 | 0.0 | 0.0 | 0.00 | 0.03 | 0.00 | 59 | 1003.8 |
| 20260830090129 | 59 | 156 | 0.0 | 0.0 | 0.00 | 0.03 | 0.00 | 58 | 1003.7 |
| 20260830084629 | 59 | 158 | 0.0 | 7.0 | 0.00 | 0.03 | 0.00 | 58 | 1003.7 |
| 20260830083154 | 58 | 169 | 0.0 | 0.0 | 0.00 | 0.03 | 0.00 | 59 | 1003.9 |
| 20260830081503 | 59 | 124 | 0.0 | 3.5 | 0.00 | 0.03 | 0.00 | 59 | 1003.9 |
| 20260830080027 | 58 | 145 | 0.0 | 4.3 | 0.00 | 0.03 | 0.00 | 59 | 1004.0 |
| 20260830074529 | 58 | 159 | 0.0 | 0.0 | 0.00 | 0.03 | 0.00 | 60 | 1004.1 |
| 20260830073005 | 59 | 159 | 0.0 | 0.0 | 0.00 | 0.03 | 0.00 | 58 | 1004.2 |
| 20260830071559 | 59 | 159 | 0.0 | 0.0 | 0.00 | 0.03 | 0.00 | 59 | 1004.4 |
| 20260830070039 | 59 | 159 | 0.0 | 0.0 | 0.00 | 0.03 | 0.00 | 59 | 1004.5 |
| 20260830064536 | 59 | 159 | 0.0 | 0.0 | 0.00 | 0.03 | 0.00 | 58 | 1004.7 |
| 20260830063035 | 58 | 130 | 0.0 | 0.0 | 0.00 | 0.03 | 0.00 | 60 | 1004.7 |
| 20260830061539 | 58 | 130 | 0.0 | 0.0 | 0.00 | 0.03 | 0.00 | 58 | 1004.6 |
| 20260830060019 | 58 | 130 | 0.0 | 0.0 | 0.00 | 0.03 | 0.00 | 60 | 1004.9 |
| 20260830054507 | 58 | 130 | 0.0 | 0.0 | 0.00 | 0.03 | 0.03 | 59 | 1004.9 |
| 20260830053026 | 57 | 130 | 0.0 | 0.0 | 0.00 | 0.03 | 0.03 | 61 | 1005.0 |
| 20260830051522 | 58 | 130 | 0.0 | 0.0 | 0.00 | 0.03 | 0.03 | 61 | 1005.1 |
| 20260830050045 | 58 | 130 | 0.0 | 0.0 | 0.00 | 0.03 | 0.03 | 61 | 1005.0 |
| 20260830044552 | 59 | 130 | 0.0 | 2.6 | 0.00 | 0.03 | 0.03 | 59 | 1005.2 |